Retour au catalogue

BREEZE-M DEB

LostHEO
NORAD 38603·DEBRIS·🇷🇺 Russia

Lancé Mar 14, 2008 depuis Baikonur Cosmodrome

Loading…

Prochains Passages (prochaines 24 heures)

TLE

PériméSource: Space-Track

Époque: Nov 26, 2025, 08:33 UTC

1 38603U 08011BA  25330.35659569  .00010257  00000-0  11035-1 0  9997
2 38603  49.5001 268.5149 6444084 235.7422  46.1755  3.31430404 19124

Suivez BREEZE-M DEB en temps réel avec AllMySat

Download on the App Store